Orbital elements: 2011 BQ50 Earth MOID = 0.0060 AU Epoch 2011 Feb. 8.0 TT = JDT 2455600.5 MPC M 218.28610 (2000.0) P Q n 1.06594734 Peri. 0.68686 +0.28621505 +0.95814091 a 0.9491005 Node 285.94465 -0.87913355 +0.25975694 e 0.0972072 Incl. 0.40826 -0.38105794 +0.12038410 P 0.92 H 27.8 G 0.15 U 8
The 6 - 14 metre wide asteroid 2011 BQ50 will make a close pass (11.5 lunar distances, 0.0296 AU), travelling at 2.40 km/second, to the Earth-Moon system on the 23rd February, 2011 @ 06:44 UT ±15:20.